Location: Burbank
(38.7788°N, 114.0429°W)
Time: 22:56:51
(UTC+00:00)

Transit 2A - Pass Details

Date: 16 May 2026
Orbit: 595 x 949 km, 66.7° (Epoch: 5 June)

Event Time Altitude Azimuth Distance (km) Brightness Sun altitude
Rises 23:02:25 0° 216° (SW) 3,597 10.0 40.9°
Reaches altitude 10° 23:05:02 10° 220° (SW) 2,640 9.5 40.4°
Maximum altitude 23:11:10 63° 301° (WNW) 1,007 7.8 39.2°
Drops below altitude 10° 23:16:56 10° 22° (NNE) 2,488 8.5 38.1°
Sets 23:19:21 0° 26° (NNE) 3,375 9.1 37.7°
